This is the latest recevied weather packets stored in our database for station/object G7GQA-4. If no packets are shown the sender has not sent any weather packets the latest 10 day(s).
| Time | Temp. | Humidity | Pressure | Rain* | Wind** | Luminosity | Snow |
|---|---|---|---|---|---|---|---|
| 1778173228 | 13.89° C | 61% | - | 0 mm | - | 23 W/m² | - |
| 1778172628 | 14.44° C | 59% | - | 0 mm | - | 27 W/m² | - |
| 1778172028 | 14.44° C | 57% | - | 0 mm | - | 35 W/m² | - |
| 1778171428 | 14.44° C | 54% | - | 0 mm | - | 43 W/m² | - |
| 1778170828 | 15° C | 52% | - | 0 mm | - | 42 W/m² | - |
| 1778170228 | 15° C | 50% | - | 0 mm | - | 52 W/m² | - |
| 1778169628 | 15° C | 49% | - | 0 mm | - | 57 W/m² | - |
| 1778169028 | 15.56° C | 49% | - | 0 mm | - | 75 W/m² | - |
| 1778168428 | 15.56° C | 50% | - | 0 mm | - | 86 W/m² | - |
| 1778167828 | 15° C | 49% | - | 0 mm | - | 82 W/m² | - |
| 1778167228 | 15° C | 49% | - | 0 mm | - | 76 W/m² | - |
| 1778166628 | 15.56° C | 48% | - | 0 mm | - | 66 W/m² | - |
| 1778166028 | 15.56° C | 47% | - | 0 mm | - | 78 W/m² | - |
| 1778165428 | 15.56° C | 47% | - | 0 mm | - | 115 W/m² | - |
| 1778164828 | 15.56° C | 47% | - | 0 mm | - | 130 W/m² | - |
| 1778164228 | 15.56° C | 46% | - | 0 mm | - | 185 W/m² | - |
| 1778163627 | 15.56° C | 46% | - | 0 mm | - | 181 W/m² | - |
| 1778163027 | 16.11° C | 46% | - | 0 mm | - | 213 W/m² | - |
| 1778162428 | 16.11° C | 46% | - | 0 mm | - | 232 W/m² | - |
| 1778161827 | 16.67° C | 44% | - | 0 mm | - | 286 W/m² | - |
| 1778161227 | 16.67° C | 41% | - | 0 mm | - | 348 W/m² | - |
| 1778160627 | 16.67° C | 41% | - | 0 mm | - | 583 W/m² | - |
| 1778160027 | 17.22° C | 41% | - | 0 mm | - | 563 W/m² | - |
| 1778159428 | 17.22° C | 40% | - | 0 mm | - | 591 W/m² | - |
| 1778158827 | 17.22° C | 38% | - | 0 mm | - | 637 W/m² | - |
* Rain latest hour (hover to see other rain measurements)
** Current wind speed in m/s (hover to see current wind gust speed)